Location: Artiguedieu
(43.5000°N, 0.5454°E)
Time: 10:34:23
(UTC+00:00)

Vanguard 1 Rocket - Pass Details

Date: 06 August 2021
Orbit: 650 x 4226 km, 34.3° (Epoch: 24 September)

Event Time Altitude Azimuth Distance (km) Brightness Sun altitude
Rises 13:00:35 0° 274° (W) 7,226 12.1 60.5°
Reaches altitude 10° 13:06:28 10° 269° (W) 5,630 11.8 59.9°
Maximum altitude 13:19:52 42° 206° (SSW) 2,331 11.3 58.6°
Drops below altitude 10° 13:27:09 10° 138° (SE) 3,099 10.3 57.7°
Sets 13:29:27 0° 130° (SE) 3,779 10.6 57.5°
